Volver al catálogo

TITAN 34D TRANSTAGE DEB

ActivoHEO
NORAD 22818·DEBRIS·🇺🇸 United States

Lanzado Sep 2, 1988 desde Cape Canaveral Space Force Station

Loading…

Próximos Pases (próximas 24 horas)

TLE

ActualizadoSource: Space-Track

Época: Sep 12, 2026, 21:14 UTC

1 22818U 88077F   26255.88474630  .00000553  00000-0  15332-2 0  9990
2 22818  26.7479 146.1638 6967359 221.8721  56.0900  2.59977364 66481

Sigue TITAN 34D TRANSTAGE DEB en tiempo real con AllMySat

Download on the App Store